Weather Roundup
Issued by NWS Chicago, IL

Home | Current Version | Previous Version | Text Only | Print | Product List | Glossary Off
Versions: 1 2 3 4 5 6 7 8 9 10 11 12 13 14 15 16 17 18 19 20 21 22 23 24 25 26 27 28 29 30 31 32 33 34 35 36 37 38 39 40 41 42 43 44 45 46 47 48 49 50

913
NZUS59 KLOT 242103
HRRLOT

CHICAGO AREA WEATHER ROUNDUP
NATIONAL WEATHER SERVICE CHICAGO/ROMEOVILLE IL
300 PM CST FRI FEB 24 2017

NOTE: "FAIR" INDICATES FEW OR NO CLOUDS BELOW 12,000 FEET WITH NO
SIGNIFICANT WEATHER AND/OR OBSTRUCTIONS TO VISIBILITY.

* THESE STATIONS ARE NOT UNDER NWS QUALITY CONTROL. THEY ALSO MAY NOT
  REPORT WEATHER SUCH AS PRECIPITATION OR FOG.

ILZ005-006-012>014-019>023-242200-
NORTHEAST ILLINOIS

CITY           SKY/WX    TMP DP  RH WIND       PRES   REMARKS
OHARE          CLOUDY    40  38  93 N9        29.45R FOG
MIDWAY         CLOUDY    41  38  89 N7        29.46R
AURORA         FOG       42  40  92 NW6       29.47R VSB 1/2
LANSING*       CLOUDY    43  42  97 N3        29.46R
JOLIET*        CLOUDY    49  46  87 W3        29.48R
WAUKEGAN       CLOUDY    37  35  92 N9        29.47R FOG
DUPAGE AIRPORT CLOUDY    40  37  89 N7        29.46R FOG
WHEELING       CLOUDY    38  37  97 N10       29.47S FOG
KANKAKEE*      CLOUDY    61  49  66 SW24      29.47R
MORRIS*        CLOUDY    49  45  88 W16G22    29.47R
LEWIS AIRPORT* CLOUDY    45  44  98 CALM      29.47R
NORTHERLY ISL    N/A     40  38  93 N7          N/A
$$

WIZ051-052-058>065-066-070>072-242200-
SOUTHEAST WISCONSIN

CITY           SKY/WX    TMP DP  RH WIND       PRES   REMARKS
MILWAUKEE      LGT RAIN  36  33  89 N15       29.48S FOG
KENOSHA*       CLOUDY    36  34  92 N9        29.48R FOG
RACINE*        MIX PCPN  36  34  92 N18G24    29.49R FOG
WAUKESHA       CLOUDY    32  30  93 N12G18    29.51R FOG     WCI  23
WEST BEND      CLOUDY    32  32 100 N6        29.51R FOG     WCI  26
$$

INZ001>003-010>013-019-020-242200-
NORTHWEST INDIANA

CITY           SKY/WX    TMP DP  RH WIND       PRES   REMARKS
GARY*          CLOUDY    41  41 100 NW12      29.47R
MICHIGAN CITY* NOT AVBL
RENSSELAER*    NOT AVBL
VALPARAISO     CLOUDY    55  49  80 W16       29.44R
$$

LMZ740>746-242200-
SOUTHERN LAKE MICHIGAN

STATION/POSITION TIME  SKY/WX   TEMP WIND        PRES    VSBY
                                AIR  DIR/SP/G
                 (UTC)          (F)  (DEG/KT/KT) (MB)    (MI)
HARRISON CRIB    2040            37  330/ 19/ 20   N/A
BURNHAM HARBOR   2100            38  360/ 11/ 12   N/A
CALUMET HARBOR   2030            40  330/  9/ 11  997.2R
BURNS HARBOR     2040            36  270/  9/ 12  998.3R
MICHIGAN CITY    2040            36  220/ 14/ 14   N/A
$$

ABBREVIATIONS USED IN REMARKS
   TC - TEMPERATURE IN CELSIUS
  WCI - WIND CHILL INDEX
   HX - HEAT INDEX
  VSB - VISIBILITY
$$




USA.gov is the U.S. government's official web portal to all federal, state and local government web resources and services.